FENGYUN 1C DEB, 30933

Orbit data source: Space-Track

FENGYUN 1C DEB, 30933 is space debris in SSO originally from a launch on Mon, 10 May 1999 UTC launched from the Taiyaun Space Center, China (TSC). Fengyun 1C debris stems from the Chinese weather satellite Fengyun-1C, which was intentionally destroyed by a Chinese anti-satellite missile in 2007. This event dramatically increased the amount of space debris, with thousands of trackable fragments posing hazards to satellites and human spaceflight. The Fengyun 1C debris cloud has become a focal point in discussions about space sustainability and the need for international regulations to prevent the creation of new debris.

Loading next visibility...
Identifier
30933, 1999-025AZX
Orbit
SSO
Country
Flag of CNCN / PRC
Related business
Manufacturer
Unknown
Mission
Spacecraft
Bus & Motor
Unknown
Mass
Unknown
Launch date (UTC)
1999-05-10 (27 years ago)
Launch vehicle
Unknown
Launch site
Taiyaun Space Center, China (TSC)
Object type
Payload
Rocket body
Debris
Shape & HBR
Unknown shape, 0.1 m
Radar Cross Section
Small (<0.1 m²)

Expand to show TLE details & history
Last TLE update: 20 hours ago

TLE from 20 hours ago
0 FENGYUN 1C DEB
1 30933U 99025AZX 26106.96354929  .00006436  00000-0  19962-2 0  9993
2 30933  99.0565 101.2035 0069150 315.6758  70.7928 14.40108891976722
Epoch: 2026-04-16T23:07Z
TLE epoch observation values (Epoch: 2026-04-16T23:07:30.658Z)
Latitude
26.89117°
Longitude
-95.3895°
Altitude
745.493 km
Speed
7.493 km/s
True Right ascension
06h 26m 22s
True Declination
26° 45' 09"
Sunlit
Object was in daylight at epoch
Visualization orbit readout
Latitude
Unknown
Longitude
Unknown
Altitude
Unknown
Speed
Unknown
Apparent Right ascension
Unknown
Apparent Declination
Unknown
Sunlit
N/A
Visualization observer readout
Local Sidereal Time
01:35:02
Azimuth
Unknown
Elevation
Unknown
Doppler factor
Unknown
Orbital elements
Apogee altitude
804.615 km
Perigee altitude
705.96 km
Semi-major axis
7,133.424 km
Eccentricity
0.00692
Inclination
99.0565°
RAAN
101.2035°
Arg. of periapsis
315.6758°
True anomaly
71.5432°
Mean anomaly
70.7928°
Eccentric anomaly
71.16779°
Mean motion
3.60243 °/min
Orbital period
99.93 mins
BSTAR
0.0019962
Loading maneuver chart data...
Computing Atmospheric mass density...

Documentation

Showing up to 5 results
|